Regional Weather Roundup
Issued by NWS

Home | Current Version | Previous Version | Graphics & Text | Print | Product List | Glossary On
Versions: 1 2 3 4 5 6 7 8 9 10 11 12 13 14 15 16 17 18 19 20 21 22 23 24 25 26 27 28 29 30 31 32 33 34 35 36 37 38 39 40 41 42 43 44 45 46 47 48 49 50
000
ASUS45 KPSR 020900
RWRAZ

ARIZONA HOURLY REGIONAL WEATHER ROUNDUP
NATIONAL WEATHER SERVICE PHOENIX AZ
200 AM MST WED SEP 02 2015

NOTE: FAIR INDICATES FEW OR NO CLOUDS BELOW 12,000 FEET WITH NO
SIGNIFICANT WEATHER AND/OR OBSTRUCTIONS TO VISIBILITY.

AZZ001>003-036-021000-
NORTHWEST ARIZONA

CITY           SKY/WX    TMP DP  RH WIND       PRES   REMARKS
KINGMAN        CLEAR     75  51  43 S10       30.02S
$$

AZZ004>008-015-016-018-021000-
NORTH CENTRAL ARIZONA

CITY           SKY/WX    TMP DP  RH WIND       PRES   REMARKS
GRAND CANYON   PTCLDY    51  49  92 CALM      30.28S
PRESCOTT       PTCLDY    65  52  62 S5        30.18S
FLAGSTAFF      NOT AVBL
PAYSON         CLOUDY    66  55  68 CALM      30.21S
PAGE           CLEAR     72  50  45 CALM      30.07S
$$

AZZ009>014-017-021000-
NORTHEAST ARIZONA

CITY           SKY/WX    TMP DP  RH WIND       PRES   REMARKS
WINSLOW        NOT AVBL
SAINT JOHNS    MOCLDY    63  53  70 CALM      30.22F
WINDOW ROCK    PTCLDY    52  48  86 CALM      30.30S
SHOW LOW       CLOUDY    59  54  82 S7        30.29S
$$

AZZ023-021000-
GREATER PHOENIX AREA

CITY           SKY/WX    TMP DP  RH WIND       PRES   REMARKS
PHOENIX        MOCLDY    91  62  37 SW5       29.88S
DEER VALLEY    MOCLDY    86  58  38 NE6       29.91R
SCOTTSDALE     MOCLDY    87  61  41 SE3       29.93S
$$

AZZ027-028-021000-
SOUTHWEST MARICOPA COUNTY AND PINAL COUNTY

CITY           SKY/WX    TMP DP  RH WIND       PRES   REMARKS
CASA GRANDE    CLOUDY    88  55  33 CALM      29.92S
GILA BEND      FAIR      86  45  23 SW8       29.87F
$$

AZZ503-504-507>509-021000-
SOUTHEAST ARIZONA

CITY           SKY/WX    TMP DP  RH WIND       PRES   REMARKS
TUCSON         CLOUDY    82  65  56 CALM      30.03F
DAVIS-MONTHAN  CLOUDY    78  67  68 SE7       30.02F
NOGALES        CLOUDY    73  60  63 CALM      30.13S
SIERRA VISTA   CLOUDY    71  55  56 MISG      30.18S
SAFFORD        MOCLDY    73  67  81 CALM      30.04S
$$

AZZ020-021-025-026-031-021000-
SOUTHWEST ARIZONA

CITY           SKY/WX    TMP DP  RH WIND       PRES   REMARKS
YUMA           PTCLDY    86  70  58 SE15      29.80S
$$

CAZ031-033-041-043-047-048-061-021000-
SOUTHERN CALIFORNIA

CITY           SKY/WX    TMP DP  RH WIND       PRES   REMARKS
DOWNTOWN L.A.  CLOUDY    70  61  73 CALM      29.95F
L.A. AIRPORT   CLOUDY    69  62  78 CALM      29.96F
SAN DIEGO      CLOUDY    70  60  70 SW5       29.98S
BURBANK        CLOUDY    69  60  73 S3        29.96F
ONTARIO        CLOUDY    67  60  78 SW7       29.97S
RIVERSIDE      CLOUDY    66  60  81 W5        29.98S
PALM SPRINGS   PTCLDY    81  55  40 SE3       29.84S
EL CENTRO NAS  CLEAR     85  44  23 CALM      29.80S
IMPERIAL       CLEAR     85  68  56 SE3       29.78S
BLYTHE         CLEAR     84  58  40 S10       29.81S
$$

NVZ020-UTZ003-021000-
SOUTHERN NEVADA-UTAH

CITY           SKY/WX    TMP DP  RH WIND       PRES   REMARKS
LAS VEGAS      NOT AVBL
SALT LAKE CITY MOCLDY    79  40  24 S25G32    29.93S
$$

NMZ009-TXZ055-021000-
NEW MEXICO-WEST TEXAS

CITY           SKY/WX    TMP DP  RH WIND       PRES   REMARKS
ALBUQUERQUE    PTCLDY    70  44  39 S3        30.19R
EL PASO        CLOUDY    79  47  32 NE3       30.06F
$$


........................KEY........................
SKY/WX - SKY CONDITION/WEATHER
TMP    - TEMPERATURE IN FAHRENHEIT
DP     - DEW POINT IN FAHRENHEIT
RH     - RELATIVE HUMIDITY IN PERCENT
WIND   - DIRECTION AND SPEED IN MILES PER HOUR (MPH)
VRB    - VARIABLE WIND DIRECTION
PRES   - MEAN SEA LEVEL PRESSURE IN INCHES OF MERCURY
         F - FALLING PRESSURE   R - RISING PRESSURE
         S - STEADY PRESSURE
VSB    - VISIBILITY IN MILES
HX     - HEAT INDEX IN FAHRENHEIT
WCI    - WIND CHILL INDEX IN FAHRENHEIT
TC     - TEMPERATURE IN CELSIUS WHICH IS ALSO KNOWN AS
         TEMPERATURE IN CENTIGRADE
AFB    - AIR FORCE BASE
         LUKE AFB IS LUKE AIR FORCE BASE
         DAVIS-MONTHAN IS DAVIS-MONTHAN AIR FORCE BASE
NAS    - NAVAL AIR STATION
         EL CENTRO NAS IS EL CENTRO NAVAL AIR STATION
N/A    - NOT AVAILABLE




USA.gov is the U.S. government's official web portal to all federal, state and local government web resources and services.